Temp
21 20 20 20 19 19 19 19 19 19 19 20 20 19 20 20 20 19 19 18 18 18 18 19 18 18 18 18 18 19 19 19 19 20 20 20 20 20 19 19 19 19 18
21 21 20 21 20 19 19 19 19 19 19 19 19 19 19 20 20 19 19 19 18 18 18 18 19 18 18 18 18 18 18 19 19 19 19 19 19 19 19 19 19 19 18
21 20 21 20 20 20 20 19 19 19 18 19 19 19 19 19 20 19 19 19 19 18 18 18 19 19 19 19 18 18 18 19 18 18 19 19 19 19 18 19 19 19 18
21 21 21 20 19 20 19 19 19 19 18 18 19 19 19 19 19 19 19 19 19 19 19 18 19 18 18 18 18 18 18 18 18 18 18 18 18 18 18 18 18 18 18
21 21 21 20 20 20 18 18 17 18 18 18 18 18 18 18 18 19 18 18 19 19 19 19 18 18 18 18 18 18 18 18 18 18 18 18 18 18 18 18 17 17 17
20 21 21 21 19 19 19 19 18 18 18 18 18 18 18 18 18 18 18 18 18 19 19 19 18 18 18 18 18 18 17 18 18 18 18 18 18 18 18 17 17 17 17
19 19 19 19 20 19 19 19 18 18 19 18 18 18 17 18 18 18 18 17 17 18 18 18 18 18 18 18 18 18 18 18 18 18 18 18 18 18 18 18 17 17 17
18 18 18 18 19 19 19 19 18 18 18 17 17 17 16 17 18 18 17 17 17 17 18 18 18 18 18 18 18 17 18 18 18 18 17 18 18 17 17 17 17 17 16
18 18 18 17 18 18 18 17 16 16 16 16 17 16 16 17 17 17 17 17 17 17 17 17 18 18 18 18 18 18 17 18 18 18 17 17 17 17 17 16 16 15 15
18 18 18 17 16 15 16 15 15 15 15 15 16 17 17 17 17 17 18 18 17 17 17 18 18 18 18 18 18 17 17 17 17 17 17 17 16 16 16 15 14 14 14
17 17 16 16 16 16 15 14 14 14 15 15 16 17 15 15 16 17 18 18 18 17 17 17 17 17 17 17 17 17 17 17 17 16 16 16 15 15 15 14 14 14 14
16 16 15 15 15 15 15 15 14 14 14 14 15 14 14 15 15 16 15 16 15 16 16 16 17 17 18 17 17 17 16 17 16 16 15 15 14 14 14 14 13 13 13
15 15 14 15 14 14 15 14 15 14 13 14 13 14 14 14 14 16 15 15 14 15 15 15 15 15 15 15 15 15 15 15 15 14 14 14 13 13 12 13 12 13 12
15 15 14 14 14 13 14 14 14 14 14 14 14 13 15 15 15 16 15 14 15 14 14 14 14 14 14 14 14 14 14 14 14 14 13 13 12 12 12 12 12 12 12
13 13 14 14 14 13 14 14 14 13 13 13 13 13 13 14 14 13 13 13 13 13 13 13 13 13 13 14 13 14 14 13 13 13 13 12 12 12 11 11 11 11 11
13 13 13 13 13 13 14 14 13 12 12 13 12 12 13 13 13 13 13 13 13 13 13 13 13 13 13 13 13 14 13 12 12 13 12 12 12 11 11 11 11 10 11
13 14 14 14 13 14 14 13 14 13 12 13 13 13 13 13 13 13 13 13 13 13 13 13 13 13 13 13 12 12 12 12 12 12 11 11 11 11 10 10 10 10 10
13 14 13 14 14 13 13 13 13 13 13 13 13 13 13 13 13 12 12 12 12 11 12 12 12 12 12 12 12 12 12 12 11 11 11 11 11 11 10 10 10 10 10
13 13 14 14 14 13 13 12 12 12 12 13 13 13 13 13 12 12 12 12 12 11 11 11 11 11 11 10 10 11 11 11 11 11 11 11 11 10 10 10 10 10 10
13 13 13 14 14 14 13 13 13 13 12 13 13 13 13 13 12 12 12 12 12 12 12 12 12 12 11 12 11 11 11 11 11 11 11 10 10 10 10 10 11 11 11
13 13 13 14 14 13 13 13 14 14 14 14 14 14 14 13 13 13 12 12 12 12 12 12 12 12 12 12 12 12 11 11 11 10 10 10 10 10 10 11 11 11 11
13 14 13 13 13 14 14 14 14 14 14 14 14 14 13 13 13 13 13 13 13 13 12 12 12 12 12 12 11 11 11 11 11 11 10 10 10 10 10 10 11 11 11
14 14 14 14 14 14 14 14 15 15 15 15 14 14 14 14 14 13 13 13 13 13 13 12 12 12 12 12 12 11 11 11 11 11 11 10 10 10 10 10 10 10 10
14 14 14 15 15 15 15 15 15 15 15 15 15 15 15 15 14 14 14 14 14 14 13 13 13 12 12 12 12 12 11 11 11 11 11 11 10 10 10 10 10 10 10
14 14 15 15 15 15 15 15 15 15 16 16 16 16 16 15 15 15 15 15 14 14 14 14 14 13 13 12 12 12 12 11 12 12 11 11 10 10 10 10 10 10 10
14 14 15 15 16 16 16 15 15 16 16 16 16 16 16 16 16 15 15 15 15 14 14 14 14 14 14 13 13 13 13 12 12 12 11 11 11 11 10 10 10 10 10
Height
1522 1526 1528 1530 1533 1535 1538 1540 1544 1548 1551 1554 1556 1558 1561 1563 1565 1566 1567 1569 1570 1571 1571 1572 1573 1574 1574 1574 1574 1575 1574 1574 1573 1573 1572 1572 1572 1572 1572 1572 1571 1570 1569
1517 1520 1522 1525 1527 1529 1531 1535 1539 1542 1546 1549 1552 1555 1557 1558 1559 1561 1563 1564 1566 1567 1569 1569 1570 1571 1571 1571 1571 1570 1571 1571 1571 1570 1570 1570 1569 1568 1568 1567 1566 1566 1565
1510 1514 1517 1519 1521 1523 1526 1531 1535 1538 1541 1544 1547 1549 1553 1555 1556 1556 1558 1560 1562 1563 1566 1566 1566 1566 1566 1567 1568 1568 1568 1567 1566 1566 1566 1566 1565 1563 1562 1562 1561 1561 1562
1504 1508 1509 1511 1515 1520 1525 1527 1532 1532 1534 1537 1540 1543 1547 1549 1552 1554 1555 1556 1557 1558 1560 1561 1562 1562 1562 1563 1564 1564 1564 1563 1562 1562 1562 1562 1561 1560 1558 1558 1557 1557 1558
1497 1500 1502 1505 1509 1515 1516 1511 1526 1529 1527 1529 1533 1537 1540 1544 1546 1548 1550 1551 1552 1553 1554 1555 1555 1556 1558 1559 1560 1559 1559 1558 1558 1558 1558 1558 1558 1557 1556 1554 1553 1553 1554
1491 1493 1496 1498 1502 1507 1512 1513 1517 1516 1519 1521 1524 1529 1534 1537 1539 1541 1543 1545 1546 1547 1548 1549 1550 1551 1552 1554 1555 1555 1556 1555 1554 1554 1554 1554 1555 1555 1553 1552 1551 1550 1549
1488 1489 1490 1492 1494 1498 1503 1506 1509 1511 1511 1513 1516 1520 1524 1528 1531 1533 1535 1537 1539 1540 1541 1543 1545 1546 1548 1549 1550 1550 1550 1550 1550 1550 1550 1551 1550 1550 1549 1548 1547 1546 1545
1485 1485 1486 1488 1489 1493 1497 1498 1500 1505 1506 1508 1512 1514 1516 1518 1522 1524 1526 1528 1529 1532 1533 1536 1538 1540 1542 1544 1545 1546 1545 1544 1545 1545 1545 1545 1545 1545 1544 1543 1542 1542 1541
1483 1483 1485 1485 1486 1489 1491 1492 1495 1499 1501 1503 1506 1508 1508 1510 1513 1516 1518 1520 1522 1524 1527 1529 1530 1532 1535 1537 1538 1538 1538 1538 1539 1539 1539 1539 1539 1540 1539 1538 1537 1537 1536
1485 1486 1486 1486 1487 1488 1490 1491 1492 1494 1497 1499 1501 1503 1503 1502 1505 1507 1509 1512 1514 1518 1520 1521 1522 1525 1528 1530 1531 1532 1532 1532 1532 1532 1532 1533 1533 1534 1533 1532 1532 1532 1532
1488 1489 1489 1489 1489 1489 1489 1490 1491 1492 1493 1495 1497 1495 1492 1492 1496 1500 1502 1504 1507 1509 1512 1513 1515 1517 1520 1521 1523 1524 1525 1525 1526 1526 1526 1527 1527 1528 1528 1528 1527 1526 1527
1490 1490 1489 1490 1490 1490 1490 1490 1491 1491 1492 1493 1494 1494 1489 1487 1491 1495 1497 1498 1502 1503 1504 1505 1508 1509 1510 1512 1514 1515 1517 1518 1518 1519 1520 1521 1522 1521 1521 1521 1522 1521 1522
1490 1489 1489 1489 1490 1491 1491 1491 1491 1491 1492 1493 1493 1492 1491 1486 1489 1491 1492 1496 1501 1499 1501 1502 1503 1505 1505 1506 1507 1509 1511 1513 1513 1513 1514 1516 1518 1517 1518 1519 1521 1520 1521
1489 1488 1488 1487 1488 1489 1490 1490 1491 1491 1491 1492 1492 1492 1490 1488 1488 1489 1495 1497 1497 1497 1500 1501 1500 1502 1502 1503 1504 1506 1508 1509 1509 1510 1512 1513 1517 1519 1520 1520 1522 1522 1523
1488 1487 1487 1487 1488 1489 1489 1489 1490 1490 1491 1491 1491 1491 1490 1490 1491 1493 1496 1497 1498 1499 1499 1500 1501 1501 1501 1500 1501 1502 1506 1509 1511 1511 1512 1514 1516 1518 1520 1520 1521 1523 1524
1486 1488 1487 1487 1488 1489 1490 1490 1490 1491 1491 1491 1492 1492 1493 1493 1494 1495 1497 1497 1498 1499 1499 1501 1502 1503 1503 1503 1504 1504 1507 1510 1510 1509 1513 1515 1517 1518 1519 1520 1523 1525 1525
1486 1488 1488 1489 1489 1490 1490 1491 1491 1491 1491 1493 1494 1494 1495 1497 1496 1496 1498 1498 1499 1499 1500 1503 1505 1505 1505 1505 1506 1507 1509 1509 1509 1510 1512 1516 1517 1518 1520 1522 1524 1526 1527
1485 1488 1489 1490 1490 1490 1491 1492 1492 1493 1493 1494 1495 1496 1497 1498 1499 1499 1499 1500 1500 1501 1502 1504 1506 1506 1505 1505 1507 1507 1508 1509 1510 1511 1513 1514 1517 1519 1521 1524 1525 1526 1527
1485 1486 1488 1489 1490 1491 1492 1494 1494 1495 1495 1495 1495 1496 1497 1498 1498 1499 1499 1500 1501 1502 1503 1505 1505 1505 1506 1506 1508 1508 1509 1509 1510 1512 1513 1515 1517 1520 1521 1523 1526 1526 1526
1483 1485 1487 1487 1489 1491 1492 1493 1495 1495 1495 1495 1495 1495 1496 1497 1498 1499 1500 1501 1501 1502 1503 1505 1507 1507 1508 1509 1509 1508 1509 1511 1511 1512 1514 1517 1518 1521 1522 1524 1526 1526 1527
1482 1485 1487 1488 1490 1491 1493 1493 1494 1495 1496 1496 1496 1496 1496 1497 1498 1500 1501 1502 1504 1505 1506 1506 1507 1507 1507 1507 1507 1508 1510 1511 1511 1513 1515 1516 1518 1520 1522 1523 1525 1525 1526
1482 1485 1487 1489 1490 1492 1494 1494 1495 1496 1497 1498 1498 1497 1497 1498 1499 1501 1502 1504 1504 1505 1505 1506 1506 1507 1507 1507 1508 1509 1510 1510 1512 1513 1515 1516 1517 1518 1520 1522 1523 1523 1524
1481 1484 1486 1489 1490 1492 1494 1495 1495 1496 1497 1498 1498 1498 1498 1498 1499 1500 1501 1503 1503 1504 1504 1504 1504 1506 1507 1507 1507 1508 1508 1509 1511 1513 1514 1514 1515 1517 1519 1520 1521 1521 1521
1480 1483 1485 1488 1489 1491 1492 1494 1495 1495 1496 1497 1498 1498 1498 1498 1499 1499 1500 1501 1501 1501 1502 1502 1502 1503 1505 1505 1506 1507 1507 1508 1510 1512 1513 1513 1514 1516 1517 1518 1518 1519 1519
1479 1482 1484 1486 1487 1487 1489 1490 1491 1493 1493 1494 1495 1496 1496 1497 1497 1498 1499 1500 1500 1500 1500 1500 1501 1501 1502 1503 1503 1504 1504 1505 1507 1508 1509 1510 1511 1512 1514 1515 1516 1517 1517
1478 1480 1482 1483 1484 1485 1485 1486 1488 1490 1491 1492 1493 1493 1493 1493 1494 1495 1497 1498 1498 1499 1499 1499 1499 1499 1499 1500 1500 1501 1501 1502 1503 1504 1505 1506 1507 1508 1509 1511 1512 1513 1514
Wind_Speed
34 33 33 34 35 35 38 37 35 32 29 27 26 23 23 21 23 24 21 19 20 19 17 16 16 16 16 14 15 17 15 13 14 12 11 9 10 11 12 13 14 15 14
38 37 34 36 34 34 38 39 36 35 33 30 28 27 28 27 24 27 26 21 21 20 19 18 19 18 20 19 19 19 19 16 16 15 15 14 13 13 15 15 14 14 14
36 35 32 37 38 34 34 36 38 37 36 34 33 35 32 29 28 29 27 23 23 22 21 21 20 19 21 19 19 18 18 16 16 18 18 16 15 14 14 14 16 16 15
36 36 37 36 37 37 32 32 35 37 38 37 38 35 32 32 29 29 30 26 23 23 24 22 22 23 21 18 20 18 18 20 21 18 18 17 16 14 14 16 16 17 17
33 34 38 40 36 33 30 24 29 31 30 35 37 35 34 32 31 30 31 29 26 25 27 28 24 23 23 22 21 20 19 20 19 19 18 18 17 15 15 16 18 19 20
30 34 33 33 33 32 31 31 28 30 25 26 33 38 35 36 34 32 29 31 31 29 27 24 23 21 21 22 22 21 20 19 19 20 20 19 18 17 17 17 18 19 21
23 26 27 32 34 35 35 35 32 31 32 27 27 32 38 40 37 35 31 31 32 32 29 26 26 25 22 22 21 21 21 21 21 21 22 20 18 19 18 17 18 19 20
12 16 21 21 26 30 33 34 28 32 33 35 35 33 34 36 38 37 35 34 33 32 30 29 27 26 25 23 22 21 21 22 22 22 22 22 21 20 19 19 17 16 17
2 5 10 14 16 19 20 23 28 29 33 37 34 37 31 37 33 38 36 33 32 34 31 29 29 27 23 26 27 25 23 24 25 24 24 23 22 21 21 20 20 19 19
7 5 2 2 6 6 10 11 18 24 27 33 32 33 40 37 33 29 32 32 32 33 31 31 31 33 31 29 28 27 27 25 24 24 22 21 21 21 20 19 18 17 14
2 3 4 4 5 3 6 10 12 9 12 17 17 19 26 29 31 29 31 30 30 32 33 29 29 30 33 34 31 29 26 24 22 21 21 22 22 20 19 16 14 13 14
2 1 1 1 2 3 3 4 10 12 12 11 12 12 9 9 7 14 12 15 17 19 22 25 28 27 29 31 28 28 24 22 18 15 14 17 18 17 15 12 12 10 9
3 5 4 4 3 2 3 3 3 7 11 10 8 7 6 5 4 2 5 10 16 17 19 17 14 18 21 16 16 16 16 16 16 14 13 15 14 8 5 4 4 5 4
7 9 6 5 4 5 5 4 4 4 6 6 7 7 5 4 5 6 11 17 14 14 14 13 14 14 11 10 9 10 8 9 9 9 7 6 6 9 9 7 6 6 5
9 9 7 6 5 5 5 5 4 4 3 3 3 4 5 6 6 8 9 8 7 7 8 7 7 7 7 7 8 6 6 7 9 9 9 11 11 9 8 7 6 6 6
8 6 8 8 5 4 4 3 5 5 5 4 2 3 3 6 9 11 11 10 9 8 7 6 6 8 9 10 9 10 10 9 9 9 9 9 8 8 8 9 10 9 10
12 10 7 6 5 4 3 3 2 4 8 10 7 6 6 7 11 12 11 10 9 8 8 8 7 7 6 6 8 8 7 8 8 8 9 9 9 10 10 12 11 9 8
13 11 9 7 5 4 5 6 6 4 5 6 6 7 7 8 9 9 8 6 6 8 8 7 5 4 3 4 6 5 6 7 8 9 10 10 10 11 13 12 10 8 7
14 13 10 9 6 5 6 5 3 3 3 4 5 5 6 7 8 7 5 4 5 7 6 5 2 2 2 4 5 5 7 8 9 10 10 12 14 13 12 10 7 5 5
16 13 11 9 9 9 7 7 4 1 1 3 4 4 4 6 7 8 8 7 7 7 8 7 5 4 3 3 6 6 7 8 9 11 13 14 13 11 8 9 6 5 4
15 14 13 12 10 10 8 6 5 5 8 7 5 7 7 7 8 9 9 8 7 5 4 4 4 2 4 4 6 7 8 10 10 10 11 11 12 10 7 8 7 5 4
15 14 13 12 12 12 10 8 7 7 7 6 5 6 8 9 9 8 8 7 6 6 4 4 5 4 5 5 7 9 10 11 10 10 9 11 10 9 8 7 7 5 6
16 13 12 13 13 11 9 8 8 7 6 6 6 4 4 8 7 7 7 7 5 6 4 4 5 8 8 6 6 10 9 8 7 6 7 9 9 8 9 7 7 7 5
16 15 14 15 15 14 12 11 9 8 7 9 9 9 6 6 7 7 7 7 6 5 5 3 3 6 7 7 6 5 11 10 9 9 8 9 9 10 10 9 8 8 8
13 10 11 14 17 17 17 15 14 12 11 9 8 12 11 10 10 9 9 8 7 7 7 6 7 5 7 9 9 7 6 9 9 9 9 10 11 13 12 11 11 11 8
15 12 9 11 14 14 13 14 14 11 11 10 9 9 10 12 13 14 14 15 14 14 13 12 11 11 10 9 10 10 10 10 12 12 10 9 12 15 15 13 10 11 9
Wind_Direction
240 242 246 238 235 231 233 234 237 237 239 238 235 234 238 241 243 247 257 252 247 249 252 252 254 256 259 255 255 257 258 262 262 268 271 272 264 256 258 262 267 268 274
241 245 248 238 236 235 236 235 236 237 237 236 239 243 243 248 252 240 246 245 246 251 257 258 255 259 261 261 260 259 258 259 263 270 273 272 267 259 261 264 263 264 259
243 241 244 240 241 240 241 240 238 240 241 239 240 242 249 253 253 237 240 246 247 251 253 261 264 267 258 257 258 255 258 264 267 272 276 284 280 271 265 266 275 274 261
246 241 247 247 247 243 248 248 251 244 241 241 241 243 245 247 244 239 237 240 246 260 257 257 266 263 259 255 255 259 265 269 273 277 278 277 282 277 275 275 274 278 279
251 253 249 254 253 247 248 250 253 255 249 246 244 245 243 241 239 238 241 241 252 255 252 259 258 260 252 254 259 264 268 271 263 266 268 276 282 285 287 278 275 278 277
249 248 252 252 254 242 243 239 241 238 239 246 249 244 245 243 243 245 245 250 253 255 258 255 253 253 248 253 261 267 267 264 265 266 267 270 279 284 288 283 280 277 277
246 248 252 254 253 248 244 244 230 242 228 240 240 244 246 244 243 243 246 250 251 253 255 251 248 249 252 257 263 261 261 264 267 269 270 272 273 286 285 282 276 270 270
247 245 245 250 248 245 247 251 239 229 241 235 233 237 237 237 241 243 241 247 250 251 253 249 247 247 248 253 260 257 264 267 265 266 273 280 283 282 280 282 278 273 269
257 250 244 243 239 245 252 251 233 240 235 225 240 239 253 249 250 245 242 243 248 250 250 245 245 248 253 253 253 255 260 264 268 270 273 275 273 271 276 277 276 277 279
78 70 80 210 227 232 240 248 242 238 238 239 251 254 260 254 247 254 242 240 243 249 249 250 251 249 249 255 255 258 263 268 268 271 269 268 268 270 275 278 278 285 278
82 29 41 67 89 101 210 235 203 229 250 245 265 290 261 243 245 252 252 247 248 248 250 252 256 256 253 254 255 256 263 265 262 259 264 268 271 273 274 272 271 266 266
201 297 329 133 130 101 94 188 233 238 218 247 279 263 237 167 212 247 253 264 271 263 260 264 269 263 257 251 253 258 257 252 253 257 264 260 268 260 258 258 254 253 259
231 276 250 222 208 175 119 118 167 202 235 251 233 237 223 143 168 268 292 258 258 263 258 254 244 234 244 235 234 238 241 251 254 249 249 247 246 242 214 176 159 145 153
256 277 237 214 200 197 197 210 202 193 203 210 230 235 237 208 181 159 213 239 238 232 239 232 231 226 230 229 240 239 244 241 236 223 221 209 181 156 145 140 145 139 142
244 253 208 182 160 146 142 140 153 164 177 204 235 231 221 209 202 205 205 199 191 188 198 199 187 183 178 176 183 172 196 202 201 184 169 159 153 155 151 150 146 133 123
195 185 189 175 162 140 133 138 125 151 177 211 222 140 157 161 158 157 157 156 156 160 168 180 183 158 144 135 136 136 152 165 154 147 156 163 170 168 157 146 143 127 121
181 178 181 159 167 178 156 142 125 126 131 132 135 124 118 135 140 139 141 141 142 142 138 145 151 153 158 159 167 173 183 178 171 169 172 173 168 160 158 154 146 140 130
184 188 199 167 144 146 142 135 113 110 143 147 144 146 149 154 155 156 152 151 146 148 153 163 178 185 198 205 202 194 188 179 171 165 164 162 163 159 154 153 151 149 157
185 200 201 194 185 172 170 159 148 149 173 195 200 189 182 188 198 189 179 165 164 170 172 173 167 142 144 153 161 163 159 162 163 167 170 162 155 153 154 159 160 152 160
190 199 200 194 186 187 184 184 176 147 170 165 177 187 199 205 202 190 179 162 144 137 138 136 129 122 132 154 176 173 177 174 168 162 160 160 160 160 162 174 181 188 158
195 195 183 180 183 181 184 178 154 135 124 112 113 123 132 142 153 158 161 168 173 168 168 179 176 181 181 169 168 173 170 166 161 163 173 176 172 169 177 183 184 187 204
186 182 188 193 180 176 175 166 160 160 159 157 135 160 162 158 160 175 190 181 188 188 187 204 209 213 162 166 177 169 159 157 161 170 174 186 189 191 201 199 198 198 200
182 184 183 176 170 176 191 197 190 203 217 219 221 230 214 196 189 189 193 201 203 192 199 210 197 189 178 165 173 198 197 189 179 182 192 193 193 196 194 206 214 219 219
174 183 189 192 197 201 197 208 225 216 243 244 234 223 211 191 187 185 193 202 190 194 222 232 210 209 212 210 207 208 201 196 208 225 221 212 210 210 214 219 226 234 231
187 194 210 219 219 224 227 225 231 244 230 223 220 228 227 220 211 202 196 195 198 209 206 205 197 194 208 212 216 221 212 215 212 208 222 225 221 219 223 230 243 243 243
209 216 225 236 231 218 209 210 213 225 229 232 232 240 247 244 240 242 234 232 236 239 239 236 235 224 211 205 206 207 208 203 207 217 222 229 223 223 227 226 234 242 257